CFG8TR GCFV-GCRR

Flight info

Callsign CFG8TR
Flight time 0h 15m
Altitude 10000
Route MAPED
Aircraft A320/M-SDE3FGHIRWY/LB1

Departure

Time 2026-05-05 17:14
Airport Fuerteventura Airport (GCFV)

Arrival

Time 2026-05-05 17:30
Airport César Manrique-Lanzarote Airport (GCRR)
Time Latitude Longitude Altitude Speed Heading
2026-05-05 16:51 28.45436 -13.86831 99 ft 0 kts 271°
2026-05-05 17:05 28.45436 -13.86820 99 ft 4 kts 270°
2026-05-05 17:05 28.45437 -13.86789 99 ft 4 kts 265°
2026-05-05 17:05 28.45440 -13.86759 99 ft 4 kts 252°
2026-05-05 17:06 28.45452 -13.86735 98 ft 4 kts 204°
2026-05-05 17:06 28.45459 -13.86732 97 ft 0 kts 182°
2026-05-05 17:09 28.45458 -13.86732 99 ft 1 kts 182°
2026-05-05 17:09 28.45441 -13.86733 99 ft 3 kts 182°
2026-05-05 17:10 28.45411 -13.86734 99 ft 7 kts 181°
2026-05-05 17:10 28.45371 -13.86679 98 ft 14 kts 88°
2026-05-05 17:10 28.45338 -13.86570 97 ft 17 kts 164°
2026-05-05 17:10 28.45223 -13.86572 95 ft 15 kts 181°
2026-05-05 17:11 28.45102 -13.86575 95 ft 21 kts 181°
2026-05-05 17:11 28.44944 -13.86580 96 ft 23 kts 182°
2026-05-05 17:11 28.44774 -13.86584 83 ft 28 kts 183°
2026-05-05 17:11 28.44556 -13.86593 72 ft 33 kts 181°
2026-05-05 17:12 28.44337 -13.86600 62 ft 32 kts 181°
2026-05-05 17:12 28.44101 -13.86607 56 ft 36 kts 181°
2026-05-05 17:12 28.43834 -13.86614 46 ft 40 kts 182°
2026-05-05 17:12 28.43560 -13.86626 39 ft 37 kts 181°
2026-05-05 17:13 28.43340 -13.86631 34 ft 19 kts 178°
2026-05-05 17:13 28.43304 -13.86523 33 ft 17 kts 92°
2026-05-05 17:13 28.43352 -13.86439 34 ft 15 kts 353°
2026-05-05 17:13 28.43477 -13.86436 33 ft 26 kts
2026-05-05 17:14 28.43856 -13.86422 33 ft 88 kts
2026-05-05 17:14 28.44666 -13.86397 64 ft 141 kts
2026-05-05 17:14 28.45719 -13.86344 481 ft 151 kts
2026-05-05 17:14 28.46688 -13.85968 1178 ft 151 kts 40°
2026-05-05 17:15 28.47501 -13.85135 1628 ft 168 kts 35°
2026-05-05 17:15 28.48560 -13.84419 1966 ft 189 kts 28°
2026-05-05 17:15 28.49797 -13.83688 2289 ft 214 kts 27°
2026-05-05 17:15 28.51192 -13.82874 2731 ft 239 kts 27°
2026-05-05 17:16 28.52734 -13.81964 3396 ft 253 kts 27°
2026-05-05 17:16 28.54312 -13.81021 3967 ft 262 kts 26°
2026-05-05 17:16 28.55961 -13.80033 4114 ft 266 kts 27°
2026-05-05 17:16 28.57590 -13.79066 4050 ft 261 kts 26°
2026-05-05 17:17 28.59183 -13.78113 4274 ft 262 kts 26°
2026-05-05 17:17 28.60805 -13.77140 4528 ft 264 kts 27°
2026-05-05 17:17 28.62433 -13.76165 4781 ft 266 kts 27°
2026-05-05 17:17 28.64086 -13.75158 4946 ft 268 kts 27°
2026-05-05 17:18 28.65725 -13.74160 4996 ft 269 kts 26°
2026-05-05 17:18 28.67373 -13.73163 5005 ft 269 kts 27°
2026-05-05 17:18 28.69018 -13.72156 5000 ft 269 kts 26°
2026-05-05 17:18 28.70661 -13.71162 5004 ft 269 kts 26°
2026-05-05 17:19 28.72333 -13.70151 4889 ft 271 kts 25°
2026-05-05 17:19 28.74150 -13.69377 3806 ft 293 kts 12°
2026-05-05 17:19 28.76126 -13.68943 3607 ft 280 kts 13°
2026-05-05 17:19 28.77869 -13.68188 3746 ft 257 kts 31°
2026-05-05 17:20 28.79098 -13.66800 3673 ft 244 kts 60°
2026-05-05 17:20 28.79543 -13.64994 3550 ft 234 kts 82°
2026-05-05 17:20 28.79611 -13.63177 3322 ft 228 kts 86°
2026-05-05 17:20 28.79617 -13.61394 3016 ft 226 kts 87°
2026-05-05 17:21 28.79619 -13.59623 2692 ft 223 kts 88°
2026-05-05 17:21 28.79626 -13.57854 2397 ft 221 kts 87°
2026-05-05 17:21 28.79590 -13.56098 2093 ft 220 kts 95°
2026-05-05 17:22 28.77697 -13.53611 1633 ft 220 kts 166°
2026-05-05 17:22 28.76218 -13.53702 1527 ft 214 kts 204°
2026-05-05 17:22 28.75098 -13.54734 1502 ft 207 kts 241°
2026-05-05 17:22 28.74718 -13.56262 1509 ft 202 kts 271°
2026-05-05 17:23 28.74731 -13.57875 1503 ft 202 kts 276°
2026-05-05 17:23 28.74808 -13.59465 1501 ft 202 kts 277°
2026-05-05 17:23 28.74906 -13.61071 1502 ft 202 kts 277°
2026-05-05 17:23 28.75007 -13.62608 1534 ft 185 kts 277°
2026-05-05 17:24 28.75103 -13.63995 1501 ft 170 kts 278°
2026-05-05 17:24 28.75176 -13.65270 1492 ft 156 kts 280°
2026-05-05 17:24 28.75362 -13.66472 1480 ft 151 kts 294°
2026-05-05 17:24 28.76021 -13.67285 1513 ft 141 kts 336°
2026-05-05 17:25 28.76953 -13.67697 1477 ft 138 kts 346°
2026-05-05 17:25 28.77551 -13.67901 1498 ft 137 kts 348°
2026-05-05 17:25 28.78766 -13.68308 1500 ft 137 kts 347°
2026-05-05 17:25 28.79678 -13.68609 1505 ft 138 kts 349°
2026-05-05 17:26 28.80620 -13.68568 1505 ft 133 kts 21°
2026-05-05 17:26 28.81444 -13.68107 1509 ft 133 kts 27°
2026-05-05 17:26 28.82266 -13.67632 1506 ft 131 kts 26°
2026-05-05 17:26 28.83074 -13.67166 1510 ft 131 kts 26°
2026-05-05 17:27 28.83894 -13.66693 1504 ft 131 kts 26°
2026-05-05 17:27 28.84712 -13.66219 1504 ft 131 kts 28°
2026-05-05 17:27 28.85523 -13.65755 1517 ft 129 kts 28°
2026-05-05 17:27 28.86339 -13.65277 1523 ft 133 kts 28°
2026-05-05 17:28 28.87161 -13.64810 1400 ft 132 kts 29°
2026-05-05 17:28 28.87981 -13.64328 1258 ft 131 kts 29°
2026-05-05 17:28 28.88790 -13.63854 1069 ft 131 kts 29°
2026-05-05 17:28 28.89617 -13.63380 885 ft 133 kts 31°
2026-05-05 17:29 28.90436 -13.62897 728 ft 134 kts 32°
2026-05-05 17:29 28.91256 -13.62420 584 ft 130 kts 32°
2026-05-05 17:29 28.92066 -13.61951 389 ft 130 kts 31°
2026-05-05 17:29 28.92862 -13.61496 220 ft 129 kts 32°
2026-05-05 17:30 28.93661 -13.61036 58 ft 128 kts 31°
2026-05-05 17:30 28.94382 -13.60618 31 ft 95 kts 26°
2026-05-05 17:30 28.94802 -13.60376 44 ft 41 kts 26°
2026-05-05 17:30 28.94989 -13.60268 48 ft 23 kts 26°
2026-05-05 17:31 28.95128 -13.60216 50 ft 20 kts 13°
2026-05-05 17:31 28.95268 -13.60209 48 ft 18 kts 358°
2026-05-05 17:31 28.95325 -13.60256 50 ft 0 kts 277°
2026-05-05 17:31 28.95325 -13.60258 50 ft 1 kts 277°
2026-05-05 17:32 28.95322 -13.60271 50 ft 3 kts 248°
2026-05-05 17:32 28.95294 -13.60295 50 ft 1 kts 210°
2026-05-05 17:32 28.95287 -13.60300 50 ft 0 kts 211°
2026-05-05 17:32 28.95284 -13.60311 50 ft 4 kts 260°
2026-05-05 17:33 28.95302 -13.60353 48 ft 6 kts 296°
2026-05-05 17:33 28.95310 -13.60373 50 ft 0 kts 296°